| time (UTC) | temp C | wind direction | speed KPH | gust KPH | rain 1hr cm | rain 24hr cm | rain mn cm | humidity % | barometer mb |
| 20260905014904 | 21 | 225 | 0.0 | 0.0 | 0.00 | 0.00 | 0.00 | 24 | 1016.2 |
| 20260905013905 | 22 | 225 | 0.0 | 0.0 | 0.00 | 0.00 | 0.00 | 22 | 1016.0 |
| 20260905013404 | 22 | 225 | 0.0 | 0.0 | 0.00 | 0.00 | 0.00 | 21 | 1016.0 |
| 20260905012904 | 23 | 225 | 0.0 | 0.0 | 0.00 | 0.00 | 0.00 | 20 | 1015.8 |
| 20260905012404 | 23 | 225 | 0.0 | 0.0 | 0.00 | 0.00 | 0.00 | 20 | 1015.8 |
| 20260905011904 | 23 | 225 | 0.0 | 0.0 | 0.00 | 0.00 | 0.00 | 18 | 1015.7 |
| 20260905011404 | 24 | 225 | 0.0 | 0.0 | 0.00 | 0.00 | 0.00 | 13 | 1015.6 |
| 20260905010904 | 24 | 225 | 0.0 | 0.0 | 0.00 | 0.00 | 0.00 | 11 | 1015.7 |
| 20260905005904 | 25 | 225 | 0.0 | 4.8 | 0.00 | 0.00 | 0.00 | 9 | 1015.6 |
| 20260905005404 | 25 | 221 | 1.6 | 4.8 | 0.00 | 0.00 | 0.00 | 9 | 1015.6 |
| 20260905004903 | 25 | 181 | 0.0 | 4.8 | 0.00 | 0.00 | 0.00 | 8 | 1015.6 |
| 20260905004404 | 25 | 136 | 1.6 | 4.8 | 0.00 | 0.00 | 0.00 | 7 | 1015.5 |
| 20260905003904 | 25 | 204 | 0.0 | 9.7 | 0.00 | 0.00 | 0.00 | 7 | 1015.6 |
| 20260905003404 | 26 | 209 | 1.6 | 11.3 | 0.00 | 0.00 | 0.00 | 7 | 1015.5 |
| 20260905002904 | 26 | 223 | 4.8 | 29.0 | 0.00 | 0.00 | 0.00 | 7 | 1015.5 |
| 20260905002404 | 26 | 226 | 8.0 | 19.3 | 0.00 | 0.00 | 0.00 | 6 | 1015.4 |
| 20260905001904 | 26 | 230 | 3.2 | 27.4 | 0.00 | 0.00 | 0.00 | 6 | 1015.3 |
| 20260905001404 | 26 | 239 | 4.8 | 25.7 | 0.00 | 0.00 | 0.00 | 6 | 1015.3 |
| 20260905000904 | 26 | 245 | 8.0 | 19.3 | 0.00 | 0.00 | 0.00 | 6 | 1015.3 |
| 20260905000404 | 26 | 234 | 4.8 | 19.3 | 0.00 | 0.00 | 0.00 | 6 | 1015.2 |
| 20260904235903 | 27 | 219 | 8.0 | 19.3 | 0.00 | 0.00 | 0.00 | 6 | 1015.2 |
| 20260904235404 | 27 | 170 | 4.8 | 22.5 | 0.00 | 0.00 | 0.00 | 6 | 1015.2 |
| 20260904234904 | 27 | 225 | 4.8 | 19.3 | 0.00 | 0.00 | 0.00 | 6 | 1015.2 |
| 20260904234404 | 27 | 127 | 4.8 | 14.5 | 0.00 | 0.00 | 0.00 | 5 | 1015.1 |
| 20260904233904 | 27 | 133 | 3.2 | 11.3 | 0.00 | 0.00 | 0.00 | 6 | 1015.4 |
| 20260904233404 | 27 | 151 | 1.6 | 11.3 | 0.00 | 0.00 | 0.00 | 5 | 1015.3 |
| 20260904232904 | 27 | 215 | 8.0 | 14.5 | 0.00 | 0.00 | 0.00 | 5 | 1015.4 |
| 20260904232404 | 27 | 152 | 4.8 | 20.9 | 0.00 | 0.00 | 0.00 | 5 | 1015.3 |
| 20260904231905 | 27 | 153 | 3.2 | 9.7 | 0.00 | 0.00 | 0.00 | 6 | 1015.3 |
| 20260904231404 | 27 | 233 | 1.6 | 4.8 | 0.00 | 0.00 | 0.00 | 5 | 1015.2 |
| 20260904230904 | 27 | 232 | 3.2 | 19.3 | 0.00 | 0.00 | 0.00 | 7 | 1015.2 |
| 20260904225404 | 27 | 227 | 8.0 | 20.9 | 0.00 | 0.00 | 0.00 | 7 | 1015.3 |
| 20260904224904 | 27 | 227 | 3.2 | 19.3 | 0.00 | 0.00 | 0.00 | 5 | 1015.2 |
| 20260904224404 | 27 | 237 | 9.7 | 19.3 | 0.00 | 0.00 | 0.00 | 5 | 1015.2 |
| 20260904223904 | 27 | 242 | 8.0 | 19.3 | 0.00 | 0.00 | 0.00 | 5 | 1015.2 |
| 20260904223404 | 27 | 229 | 8.0 | 14.5 | 0.00 | 0.00 | 0.00 | 5 | 1015.2 |
| 20260904222404 | 27 | 233 | 4.8 | 24.1 | 0.00 | 0.00 | 0.00 | 6 | 1015.2 |
| 20260904221904 | 27 | 277 | 12.9 | 19.3 | 0.00 | 0.00 | 0.00 | 4 | 1015.3 |
| 20260904221404 | 27 | 223 | 8.0 | 20.9 | 0.00 | 0.00 | 0.00 | 5 | 1015.2 |
| 20260904220904 | 26 | 252 | 4.8 | 14.5 | 0.00 | 0.00 | 0.00 | 7 | 1015.3 |
| 20260904220404 | 26 | 224 | 6.4 | 19.3 | 0.00 | 0.00 | 0.00 | 5 | 1015.3 |
| 20260904215904 | 26 | 235 | 4.8 | 22.5 | 0.00 | 0.00 | 0.00 | 6 | 1015.3 |
| 20260904215404 | 26 | 221 | 3.2 | 16.1 | 0.00 | 0.00 | 0.00 | 6 | 1015.3 |
| 20260904214904 | 26 | 230 | 12.9 | 20.9 | 0.00 | 0.00 | 0.00 | 6 | 1015.5 |
| 20260904214404 | 26 | 228 | 8.0 | 16.1 | 0.00 | 0.00 | 0.00 | 6 | 1015.4 |
| 20260904213904 | 26 | 229 | 4.8 | 14.5 | 0.00 | 0.00 | 0.00 | 6 | 1015.4 |
| 20260904211904 | 26 | 225 | 9.7 | 19.3 | 0.00 | 0.00 | 0.00 | 7 | 1015.4 |
| 20260904211404 | 26 | 249 | 4.8 | 12.9 | 0.00 | 0.00 | 0.00 | 6 | 1015.5 |
| 20260904210904 | 26 | 232 | 4.8 | 11.3 | 0.00 | 0.00 | 0.00 | 6 | 1015.5 |
| 20260904205904 | 26 | 231 | 8.0 | 19.3 | 0.00 | 0.00 | 0.00 | 7 | 1015.6 |
| 20260904205404 | 26 | 224 | 8.0 | 24.1 | 0.00 | 0.00 | 0.00 | 8 | 1015.7 |
| 20260904204904 | 26 | 233 | 9.7 | 20.9 | 0.00 | 0.00 | 0.00 | 7 | 1015.6 |
| 20260904204404 | 26 | 225 | 4.8 | 19.3 | 0.00 | 0.00 | 0.00 | 7 | 1015.7 |
| 20260904203904 | 26 | 229 | 11.3 | 22.5 | 0.00 | 0.00 | 0.00 | 7 | 1015.6 |
| 20260904203404 | 26 | 233 | 3.2 | 14.5 | 0.00 | 0.00 | 0.00 | 7 | 1015.6 |
| 20260904202904 | 26 | 231 | 8.0 | 16.1 | 0.00 | 0.00 | 0.00 | 8 | 1015.7 |
| 20260904202404 | 26 | 236 | 4.8 | 14.5 | 0.00 | 0.00 | 0.00 | 7 | 1015.7 |
| 20260904201904 | 26 | 230 | 9.7 | 19.3 | 0.00 | 0.00 | 0.00 | 6 | 1015.8 |
| 20260904201404 | 26 | 218 | 9.7 | 20.9 | 0.00 | 0.00 | 0.00 | 7 | 1015.7 |
| 20260904195904 | 26 | 236 | 12.9 | 22.5 | 0.00 | 0.00 | 0.00 | 6 | 1016.0 |
| 20260904195404 | 26 | 217 | 8.0 | 16.1 | 0.00 | 0.00 | 0.00 | 6 | 1015.9 |
| 20260904194404 | 25 | 223 | 4.8 | 16.1 | 0.00 | 0.00 | 0.00 | 6 | 1015.9 |
| 20260904193904 | 25 | 224 | 1.6 | 14.5 | 0.00 | 0.00 | 0.00 | 6 | 1016.0 |
| 20260904193404 | 25 | 238 | 9.7 | 20.9 | 0.00 | 0.00 | 0.00 | 7 | 1016.0 |
| 20260904192904 | 25 | 350 | 3.2 | 9.7 | 0.00 | 0.00 | 0.00 | 8 | 1015.9 |
| 20260904192404 | 25 | 265 | 0.0 | 8.0 | 0.00 | 0.00 | 0.00 | 10 | 1015.9 |
| 20260904191904 | 25 | 225 | 4.8 | 16.1 | 0.00 | 0.00 | 0.00 | 9 | 1016.1 |
| 20260904191404 | 25 | 176 | 1.6 | 14.5 | 0.00 | 0.00 | 0.00 | 7 | 1016.2 |
| 20260904190904 | 25 | 229 | 0.0 | 24.1 | 0.00 | 0.00 | 0.00 | 7 | 1016.1 |
| 20260904190404 | 25 | 208 | 4.8 | 16.1 | 0.00 | 0.00 | 0.00 | 8 | 1016.3 |
| 20260904185904 | 25 | 224 | 9.7 | 20.9 | 0.00 | 0.00 | 0.00 | 7 | 1016.2 |
| 20260904185404 | 25 | 224 | 3.2 | 14.5 | 0.00 | 0.00 | 0.00 | 7 | 1016.3 |
| 20260904184904 | 25 | 176 | 4.8 | 14.5 | 0.00 | 0.00 | 0.00 | 7 | 1016.4 |
| 20260904184404 | 25 | 141 | 3.2 | 12.9 | 0.00 | 0.00 | 0.00 | 10 | 1016.4 |
| 20260904183904 | 25 | 228 | 4.8 | 14.5 | 0.00 | 0.00 | 0.00 | 8 | 1016.3 |
| 20260904182904 | 25 | 222 | 3.2 | 12.9 | 0.00 | 0.00 | 0.00 | 8 | 1016.4 |
| 20260904181904 | 24 | 218 | 1.6 | 19.3 | 0.00 | 0.00 | 0.00 | 9 | 1016.5 |
| 20260904181405 | 24 | 231 | 8.0 | 19.3 | 0.00 | 0.00 | 0.00 | 8 | 1016.5 |
| 20260904180904 | 24 | 198 | 4.8 | 9.7 | 0.00 | 0.00 | 0.00 | 9 | 1016.4 |
| 20260904180404 | 24 | 173 | 1.6 | 19.3 | 0.00 | 0.00 | 0.00 | 9 | 1016.4 |
| 20260904175904 | 23 | 221 | 3.2 | 19.3 | 0.00 | 0.00 | 0.00 | 11 | 1016.5 |
| 20260904174904 | 23 | 238 | 4.8 | 9.7 | 0.00 | 0.00 | 0.00 | 9 | 1016.5 |
| 20260904174404 | 23 | 236 | 1.6 | 11.3 | 0.00 | 0.00 | 0.00 | 9 | 1016.5 |
| 20260904173904 | 23 | 222 | 4.8 | 12.9 | 0.00 | 0.00 | 0.00 | 11 | 1016.6 |
| 20260904172404 | 22 | 238 | 3.2 | 19.3 | 0.00 | 0.00 | 0.00 | 11 | 1016.5 |
| 20260904171904 | 22 | 225 | 1.6 | 11.3 | 0.00 | 0.00 | 0.00 | 14 | 1016.5 |
| 20260904171404 | 22 | 147 | 1.6 | 4.8 | 0.00 | 0.00 | 0.00 | 16 | 1016.5 |
| 20260904170904 | 21 | 217 | 3.2 | 9.7 | 0.00 | 0.00 | 0.00 | 14 | 1016.5 |
| 20260904170404 | 20 | 175 | 1.6 | 8.0 | 0.00 | 0.00 | 0.00 | 21 | 1016.5 |
| 20260904165904 | 20 | 212 | 1.6 | 8.0 | 0.00 | 0.00 | 0.00 | 20 | 1016.5 |
| 20260904165404 | 19 | 6 | 0.0 | 0.0 | 0.00 | 0.00 | 0.00 | 23 | 1016.5 |
| 20260904164904 | 18 | 12 | 0.0 | 0.0 | 0.00 | 0.00 | 0.00 | 28 | 1016.5 |
| 20260904163904 | 18 | 15 | 0.0 | 0.0 | 0.00 | 0.00 | 0.00 | 30 | 1016.6 |
| 20260904163404 | 17 | 15 | 0.0 | 0.0 | 0.00 | 0.00 | 0.00 | 32 | 1016.6 |
| 20260904162904 | 16 | 18 | 0.0 | 0.0 | 0.00 | 0.00 | 0.00 | 35 | 1016.7 |
| 20260904162404 | 16 | 24 | 0.0 | 3.2 | 0.00 | 0.00 | 0.00 | 33 | 1016.7 |
| 20260904161904 | 15 | 34 | 0.0 | 3.2 | 0.00 | 0.00 | 0.00 | 35 | 1016.8 |
| 20260904161404 | 15 | 36 | 0.0 | 0.0 | 0.00 | 0.00 | 0.00 | 36 | 1016.8 |
| 20260904160904 | 14 | 36 | 0.0 | 0.0 | 0.00 | 0.00 | 0.00 | 38 | 1016.8 |
| 20260904160404 | 13 | 39 | 0.0 | 0.0 | 0.00 | 0.00 | 0.00 | 40 | 1016.9 |
| 20260904155904 | 13 | 39 | 0.0 | 0.0 | 0.00 | 0.00 | 0.00 | 42 | 1016.9 |
| 20260904154904 | 12 | 39 | 0.0 | 0.0 | 0.00 | 0.00 | 0.00 | 46 | 1017.0 |
| 20260904154404 | 11 | 39 | 0.0 | 0.0 | 0.00 | 0.00 | 0.00 | 48 | 1017.1 |
| 20260904153904 | 11 | 39 | 0.0 | 0.0 | 0.00 | 0.00 | 0.00 | 50 | 1017.1 |
| 20260904153404 | 10 | 39 | 0.0 | 0.0 | 0.00 | 0.00 | 0.00 | 54 | 1017.1 |
| 20260904152904 | 9 | 39 | 0.0 | 0.0 | 0.00 | 0.00 | 0.00 | 57 | 1017.2 |
| 20260904152404 | 8 | 39 | 0.0 | 0.0 | 0.00 | 0.00 | 0.00 | 60 | 1017.2 |
| 20260904150904 | 7 | 39 | 0.0 | 0.0 | 0.00 | 0.00 | 0.00 | 67 | 1017.3 |
| 20260904150404 | 6 | 39 | 0.0 | 0.0 | 0.00 | 0.00 | 0.00 | 68 | 1017.4 |
| 20260904145904 | 6 | 39 | 1.6 | 4.8 | 0.00 | 0.00 | 0.00 | 69 | 1017.5 |
| 20260904145404 | 5 | 39 | 0.0 | 0.0 | 0.00 | 0.00 | 0.00 | 70 | 1017.5 |
| 20260904144903 | 5 | 39 | 0.0 | 0.0 | 0.00 | 0.00 | 0.00 | 71 | 1017.4 |
| 20260904143904 | 4 | 39 | 0.0 | 0.0 | 0.00 | 0.00 | 0.00 | 72 | 1017.4 |
| 20260904143404 | 4 | 39 | 0.0 | 0.0 | 0.00 | 0.00 | 0.00 | 72 | 1017.4 |
| 20260904142904 | 3 | 39 | 0.0 | 0.0 | 0.00 | 0.00 | 0.00 | 72 | 1017.4 |
| 20260904142404 | 3 | 39 | 0.0 | 0.0 | 0.00 | 0.00 | 0.00 | 72 | 1017.4 |
| 20260904141904 | 3 | 39 | 0.0 | 0.0 | 0.00 | 0.00 | 0.00 | 72 | 1017.4 |
| 20260904134904 | 3 | 39 | 0.0 | 0.0 | 0.00 | 0.00 | 0.00 | 70 | 1017.2 |
| 20260904134404 | 3 | 39 | 0.0 | 0.0 | 0.00 | 0.00 | 0.00 | 70 | 1017.1 |
| 20260904133904 | 3 | 39 | 0.0 | 0.0 | 0.00 | 0.00 | 0.00 | 69 | 1017.1 |
| 20260904133404 | 3 | 39 | 0.0 | 0.0 | 0.00 | 0.00 | 0.00 | 69 | 1017.0 |
| 20260904132904 | 3 | 39 | 0.0 | 0.0 | 0.00 | 0.00 | 0.00 | 69 | 1017.0 |
| 20260904132404 | 3 | 39 | 0.0 | 0.0 | 0.00 | 0.00 | 0.00 | 69 | 1016.9 |
| 20260904131904 | 3 | 39 | 0.0 | 0.0 | 0.00 | 0.00 | 0.00 | 69 | 1016.9 |
| 20260904131404 | 3 | 39 | 0.0 | 0.0 | 0.00 | 0.00 | 0.00 | 69 | 1016.8 |
| 20260904130904 | 3 | 39 | 0.0 | 0.0 | 0.00 | 0.00 | 0.00 | 69 | 1016.7 |
| 20260904124904 | 3 | 39 | 0.0 | 0.0 | 0.00 | 0.00 | 0.00 | 68 | 1016.4 |
| 20260904124404 | 3 | 39 | 0.0 | 0.0 | 0.00 | 0.00 | 0.00 | 68 | 1016.2 |
| 20260904123904 | 3 | 39 | 0.0 | 0.0 | 0.00 | 0.00 | 0.00 | 68 | 1016.4 |
| 20260904123404 | 3 | 39 | 0.0 | 0.0 | 0.00 | 0.00 | 0.00 | 68 | 1016.2 |
| 20260904122904 | 3 | 39 | 0.0 | 0.0 | 0.00 | 0.00 | 0.00 | 67 | 1016.2 |
| 20260904122404 | 3 | 39 | 0.0 | 0.0 | 0.00 | 0.00 | 0.00 | 68 | 1016.2 |
| 20260904121904 | 3 | 39 | 0.0 | 0.0 | 0.00 | 0.00 | 0.00 | 68 | 1016.1 |
| 20260904121404 | 3 | 39 | 0.0 | 0.0 | 0.00 | 0.00 | 0.00 | 68 | 1016.0 |
| 20260904120404 | 3 | 39 | 0.0 | 0.0 | 0.00 | 0.00 | 0.00 | 67 | 1015.9 |
| 20260904115903 | 4 | 39 | 0.0 | 0.0 | 0.00 | 0.00 | 0.00 | 68 | 1015.8 |
| 20260904115404 | 4 | 39 | 0.0 | 0.0 | 0.00 | 0.00 | 0.00 | 68 | 1015.9 |
| 20260904114904 | 4 | 39 | 0.0 | 0.0 | 0.00 | 0.00 | 0.00 | 68 | 1015.9 |
| 20260904114404 | 4 | 39 | 0.0 | 0.0 | 0.00 | 0.00 | 0.00 | 67 | 1015.9 |
| 20260904113904 | 4 | 39 | 0.0 | 0.0 | 0.00 | 0.00 | 0.00 | 67 | 1015.8 |
| 20260904113404 | 4 | 39 | 0.0 | 0.0 | 0.00 | 0.00 | 0.00 | 67 | 1015.8 |
| 20260904112904 | 4 | 39 | 0.0 | 0.0 | 0.00 | 0.00 | 0.00 | 67 | 1015.9 |
| 20260904112404 | 4 | 39 | 0.0 | 0.0 | 0.00 | 0.00 | 0.00 | 67 | 1015.8 |
| 20260904111904 | 4 | 39 | 0.0 | 0.0 | 0.00 | 0.00 | 0.00 | 67 | 1015.8 |
| 20260904111404 | 4 | 39 | 0.0 | 0.0 | 0.00 | 0.00 | 0.00 | 67 | 1015.8 |
| 20260904110404 | 4 | 39 | 0.0 | 0.0 | 0.00 | 0.00 | 0.00 | 67 | 1015.8 |
| 20260904105904 | 4 | 39 | 0.0 | 0.0 | 0.00 | 0.00 | 0.00 | 67 | 1015.8 |
| 20260904105404 | 4 | 39 | 0.0 | 0.0 | 0.00 | 0.00 | 0.00 | 67 | 1015.7 |
| 20260904104904 | 4 | 39 | 0.0 | 0.0 | 0.00 | 0.00 | 0.00 | 67 | 1015.7 |
| 20260904103904 | 5 | 39 | 0.0 | 0.0 | 0.00 | 0.00 | 0.00 | 67 | 1015.6 |
| 20260904103404 | 5 | 39 | 0.0 | 0.0 | 0.00 | 0.00 | 0.00 | 67 | 1015.6 |
| 20260904102904 | 5 | 39 | 0.0 | 0.0 | 0.00 | 0.00 | 0.00 | 67 | 1015.7 |
| 20260904101903 | 5 | 39 | 0.0 | 0.0 | 0.00 | 0.00 | 0.00 | 67 | 1015.7 |
| 20260904101404 | 5 | 39 | 0.0 | 0.0 | 0.00 | 0.00 | 0.00 | 66 | 1015.6 |
| 20260904100904 | 5 | 39 | 0.0 | 0.0 | 0.00 | 0.00 | 0.00 | 66 | 1015.6 |
| 20260904100404 | 5 | 39 | 0.0 | 0.0 | 0.00 | 0.00 | 0.00 | 66 | 1015.6 |
| 20260904095904 | 5 | 39 | 0.0 | 0.0 | 0.00 | 0.00 | 0.00 | 65 | 1015.6 |
| 20260904095404 | 5 | 39 | 0.0 | 0.0 | 0.00 | 0.00 | 0.00 | 64 | 1015.5 |
| 20260904094904 | 5 | 39 | 0.0 | 0.0 | 0.00 | 0.00 | 0.00 | 64 | 1015.4 |
| 20260904094404 | 5 | 39 | 0.0 | 0.0 | 0.00 | 0.00 | 0.00 | 63 | 1015.4 |
| 20260904093904 | 5 | 39 | 0.0 | 0.0 | 0.00 | 0.00 | 0.00 | 63 | 1015.4 |
| 20260904093404 | 5 | 39 | 0.0 | 0.0 | 0.00 | 0.00 | 0.00 | 62 | 1015.4 |
| 20260904092904 | 5 | 39 | 0.0 | 0.0 | 0.00 | 0.00 | 0.00 | 62 | 1015.4 |
| 20260904092404 | 5 | 39 | 0.0 | 0.0 | 0.00 | 0.00 | 0.00 | 62 | 1015.3 |
| 20260904091904 | 5 | 39 | 0.0 | 0.0 | 0.00 | 0.00 | 0.00 | 62 | 1015.2 |
| 20260904091404 | 5 | 39 | 0.0 | 0.0 | 0.00 | 0.00 | 0.00 | 61 | 1015.1 |
| 20260904090904 | 6 | 39 | 0.0 | 0.0 | 0.00 | 0.00 | 0.00 | 61 | 1015.1 |
| 20260904090404 | 6 | 39 | 0.0 | 0.0 | 0.00 | 0.00 | 0.00 | 60 | 1015.1 |
| 20260904085904 | 6 | 39 | 0.0 | 0.0 | 0.00 | 0.00 | 0.00 | 60 | 1015.0 |
| 20260904085404 | 6 | 39 | 0.0 | 0.0 | 0.00 | 0.00 | 0.00 | 59 | 1015.0 |
| 20260904084404 | 6 | 39 | 0.0 | 0.0 | 0.00 | 0.00 | 0.00 | 59 | 1015.1 |
| 20260904083904 | 6 | 39 | 0.0 | 0.0 | 0.00 | 0.00 | 0.00 | 58 | 1015.1 |
| 20260904083404 | 6 | 39 | 0.0 | 0.0 | 0.00 | 0.00 | 0.00 | 58 | 1015.1 |
| 20260904082904 | 7 | 39 | 0.0 | 0.0 | 0.00 | 0.00 | 0.00 | 58 | 1015.1 |
| 20260904082405 | 7 | 39 | 0.0 | 0.0 | 0.00 | 0.00 | 0.00 | 57 | 1015.0 |
| 20260904081404 | 7 | 39 | 0.0 | 0.0 | 0.00 | 0.00 | 0.00 | 57 | 1015.0 |
| 20260904080904 | 7 | 39 | 0.0 | 0.0 | 0.00 | 0.00 | 0.00 | 58 | 1015.0 |
| 20260904080404 | 7 | 39 | 0.0 | 0.0 | 0.00 | 0.00 | 0.00 | 58 | 1014.9 |
| 20260904075404 | 7 | 39 | 0.0 | 0.0 | 0.00 | 0.00 | 0.00 | 60 | 1015.0 |
| 20260904074904 | 7 | 39 | 0.0 | 0.0 | 0.00 | 0.00 | 0.00 | 60 | 1015.1 |
| 20260904074404 | 7 | 39 | 0.0 | 0.0 | 0.00 | 0.00 | 0.00 | 59 | 1015.1 |
| 20260904073904 | 7 | 39 | 0.0 | 0.0 | 0.00 | 0.00 | 0.00 | 58 | 1015.1 |
| 20260904073404 | 7 | 39 | 0.0 | 0.0 | 0.00 | 0.00 | 0.00 | 58 | 1015.2 |
| 20260904072904 | 7 | 39 | 0.0 | 0.0 | 0.00 | 0.00 | 0.00 | 58 | 1015.2 |
| 20260904072404 | 7 | 39 | 0.0 | 0.0 | 0.00 | 0.00 | 0.00 | 58 | 1015.2 |
| 20260904071404 | 7 | 39 | 0.0 | 0.0 | 0.00 | 0.00 | 0.00 | 59 | 1015.2 |
| 20260904070904 | 7 | 39 | 0.0 | 0.0 | 0.00 | 0.00 | 0.00 | 59 | 1015.3 |
| 20260904070404 | 7 | 39 | 0.0 | 0.0 | 0.00 | 0.00 | 0.00 | 60 | 1015.2 |
| 20260904065404 | 7 | 39 | 0.0 | 0.0 | 0.00 | 0.00 | 0.00 | 58 | 1015.2 |
| 20260904064904 | 7 | 39 | 0.0 | 0.0 | 0.00 | 0.00 | 0.00 | 58 | 1015.1 |
| 20260904063404 | 7 | 36 | 0.0 | 0.0 | 0.00 | 0.00 | 0.00 | 58 | 1015.1 |
| 20260904062904 | 7 | 36 | 0.0 | 0.0 | 0.00 | 0.00 | 0.00 | 58 | 1015.2 |
| 20260904062404 | 7 | 36 | 0.0 | 0.0 | 0.00 | 0.00 | 0.00 | 59 | 1015.2 |
| 20260904061904 | 7 | 36 | 0.0 | 0.0 | 0.00 | 0.00 | 0.00 | 58 | 1015.2 |
| 20260904061404 | 7 | 36 | 0.0 | 0.0 | 0.00 | 0.00 | 0.00 | 57 | 1015.2 |
| 20260904060904 | 7 | 36 | 0.0 | 0.0 | 0.00 | 0.00 | 0.00 | 56 | 1015.2 |
| 20260904060404 | 7 | 36 | 0.0 | 0.0 | 0.00 | 0.00 | 0.00 | 56 | 1015.2 |
| 20260904055904 | 7 | 36 | 0.0 | 0.0 | 0.00 | 0.00 | 0.00 | 56 | 1015.2 |
| 20260904055404 | 7 | 36 | 0.0 | 0.0 | 0.00 | 0.00 | 0.00 | 56 | 1015.2 |
| 20260904054904 | 8 | 36 | 0.0 | 0.0 | 0.00 | 0.00 | 0.00 | 56 | 1015.3 |
| 20260904053404 | 8 | 36 | 0.0 | 0.0 | 0.00 | 0.00 | 0.00 | 55 | 1015.3 |
| 20260904052904 | 8 | 36 | 0.0 | 0.0 | 0.00 | 0.00 | 0.00 | 56 | 1015.3 |
| 20260904052404 | 8 | 36 | 0.0 | 0.0 | 0.00 | 0.00 | 0.00 | 55 | 1015.3 |
| 20260904051904 | 8 | 36 | 0.0 | 0.0 | 0.00 | 0.00 | 0.00 | 55 | 1015.4 |
| 20260904051404 | 8 | 36 | 0.0 | 0.0 | 0.00 | 0.00 | 0.00 | 54 | 1015.4 |
| 20260904050904 | 8 | 36 | 0.0 | 0.0 | 0.00 | 0.00 | 0.00 | 54 | 1015.4 |
| 20260904050404 | 9 | 36 | 0.0 | 0.0 | 0.00 | 0.00 | 0.00 | 52 | 1015.4 |
| 20260904045904 | 9 | 36 | 0.0 | 0.0 | 0.00 | 0.00 | 0.00 | 52 | 1015.4 |
| 20260904045404 | 9 | 36 | 0.0 | 0.0 | 0.00 | 0.00 | 0.00 | 53 | 1015.4 |
| 20260904044904 | 10 | 36 | 0.0 | 0.0 | 0.00 | 0.00 | 0.00 | 52 | 1015.4 |
| 20260904044404 | 10 | 36 | 0.0 | 0.0 | 0.00 | 0.00 | 0.00 | 52 | 1015.4 |
| 20260904043904 | 10 | 36 | 0.0 | 0.0 | 0.00 | 0.00 | 0.00 | 51 | 1015.4 |
| 20260904043404 | 10 | 36 | 0.0 | 0.0 | 0.00 | 0.00 | 0.00 | 51 | 1015.5 |
| 20260904042904 | 10 | 36 | 0.0 | 0.0 | 0.00 | 0.00 | 0.00 | 50 | 1015.5 |
| 20260904042405 | 11 | 36 | 0.0 | 0.0 | 0.00 | 0.00 | 0.00 | 50 | 1015.5 |
| 20260904041904 | 11 | 36 | 0.0 | 0.0 | 0.00 | 0.00 | 0.00 | 50 | 1015.6 |
| 20260904040904 | 11 | 36 | 0.0 | 0.0 | 0.00 | 0.00 | 0.00 | 50 | 1015.5 |
| 20260904040404 | 11 | 36 | 0.0 | 0.0 | 0.00 | 0.00 | 0.00 | 51 | 1015.5 |
| 20260904035404 | 12 | 36 | 0.0 | 0.0 | 0.00 | 0.00 | 0.00 | 47 | 1015.4 |
| 20260904034904 | 12 | 36 | 0.0 | 0.0 | 0.00 | 0.00 | 0.00 | 45 | 1015.5 |
| 20260904033904 | 12 | 36 | 0.0 | 0.0 | 0.00 | 0.00 | 0.00 | 43 | 1015.5 |
| 20260904033404 | 13 | 36 | 0.0 | 0.0 | 0.00 | 0.00 | 0.00 | 44 | 1015.4 |
| 20260904032904 | 13 | 36 | 0.0 | 0.0 | 0.00 | 0.00 | 0.00 | 43 | 1015.4 |
| 20260904031904 | 13 | 36 | 0.0 | 0.0 | 0.00 | 0.00 | 0.00 | 39 | 1015.4 |
| 20260904030905 | 14 | 36 | 0.0 | 0.0 | 0.00 | 0.00 | 0.00 | 39 | 1015.3 |
| 20260904030406 | 14 | 36 | 0.0 | 0.0 | 0.00 | 0.00 | 0.00 | 39 | 1015.3 |
| 20260904025904 | 14 | 36 | 0.0 | 0.0 | 0.00 | 0.00 | 0.00 | 39 | 1015.2 |
| 20260904024904 | 15 | 36 | 0.0 | 0.0 | 0.00 | 0.00 | 0.00 | 38 | 1015.2 |
| 20260904023904 | 15 | 36 | 0.0 | 0.0 | 0.00 | 0.00 | 0.00 | 37 | 1015.1 |
| 20260904023404 | 16 | 36 | 0.0 | 1.6 | 0.00 | 0.00 | 0.00 | 35 | 1015.0 |
| 20260904022904 | 16 | 35 | 3.2 | 8.0 | 0.00 | 0.00 | 0.00 | 32 | 1015.1 |
| 20260904022404 | 16 | 223 | 0.0 | 0.0 | 0.00 | 0.00 | 0.00 | 34 | 1015.0 |
| 20260904021904 | 17 | 223 | 0.0 | 0.0 | 0.00 | 0.00 | 0.00 | 34 | 1015.0 |
| 20260904021404 | 17 | 223 | 0.0 | 0.0 | 0.00 | 0.00 | 0.00 | 31 | 1014.9 |
| 20260904020404 | 18 | 223 | 0.0 | 0.0 | 0.00 | 0.00 | 0.00 | 28 | 1014.9 |
| 20260904015904 | 18 | 223 | 0.0 | 0.0 | 0.00 | 0.00 | 0.00 | 27 | 1014.8 |
| 20260904015405 | 19 | 223 | 0.0 | 0.0 | 0.00 | 0.00 | 0.00 | 28 | 1014.8 |